When you browse on this site, cookies collect data to enhance your experience and personalize the content and advertising you see.
Visit our Privacy Policy to learn more. By continuing to use the site, you agree to this use of cookies and data.
  • In Latvia
  • List of Countries
  • For 7 days
  • Water Temperature
  • Satellite Maps
  • Weather Map
  • Weather Widgets
  • user-avatar
    Login

    Hourly Weather Mazari Sharif

    Today, 11 December, Tuesday

    Time Temperature Precipitation Wind Pressure Humidity
    00:00 +3°C° 0.1 mm 1 mps 656 mmHg 84%
    01:00 +3°C° 0.1 mm 1 mps 656 mmHg 84%
    02:00 +3°C° 0.1 mm 1 mps 655 mmHg 84%
    03:00 +3°C° 0.1 mm 1 mps 655 mmHg 83%
    04:00 +3°C° 0.1 mm 1 mps 655 mmHg 83%
    05:00 +3°C° 0 mm 1 mps 655 mmHg 82%
    06:00 +3°C° 0 mm 1 mps 655 mmHg 81%
    07:00 +3°C° 0 mm 1 mps 655 mmHg 80%
    08:00 +4°C° 0 mm 1 mps 656 mmHg 73%
    09:00 +5°C° 0 mm 1 mps 656 mmHg 66%
    10:00 +7°C° 0 mm 1 mps 656 mmHg 59%
    11:00 +6°C° 0 mm 2 mps 656 mmHg 57%
    12:00 +7°C° 0 mm 2 mps 656 mmHg 54%
    13:00 +7°C° 0 mm 2 mps 656 mmHg 51%
    14:00 +7°C° 0 mm 2 mps 656 mmHg 54%
    15:00 +6°C° 0 mm 2 mps 656 mmHg 56%
    16:00 +6°C° 0 mm 2 mps 656 mmHg 58%
    17:00 +6°C° 0 mm 1 mps 656 mmHg 61%
    18:00 +5°C° 0 mm 1 mps 656 mmHg 63%
    19:00 +5°C° 0 mm 1 mps 656 mmHg 66%
    20:00 +4°C° 0 mm 1 mps 656 mmHg 64%
    21:00 +4°C° 0 mm 1 mps 656 mmHg 63%
    22:00 +4°C° 0 mm 1 mps 656 mmHg 61%
    23:00 +4°C° 0 mm 1 mps 656 mmHg 59%

    Tomorrow, 12 December, Wednesday

    Time Temperature Precipitation Wind Pressure Humidity
    00:00 +3°C° 0 mm 1 mps 656 mmHg 58%
    01:00 +3°C° 0 mm 1 mps 656 mmHg 57%
    02:00 +3°C° 0 mm 1 mps 656 mmHg 56%
    03:00 +2°C° 0 mm 2 mps 656 mmHg 55%
    04:00 +2°C° 0 mm 2 mps 656 mmHg 54%
    05:00 +2°C° 0 mm 2 mps 656 mmHg 52%
    06:00 +2°C° 0 mm 2 mps 656 mmHg 50%
    07:00 +2°C° 0 mm 2 mps 657 mmHg 49%
    08:00 +4°C° 0 mm 2 mps 657 mmHg 44%
    09:00 +5°C° 0 mm 2 mps 658 mmHg 39%
    10:00 +7°C° 0 mm 2 mps 658 mmHg 34%
    11:00 +8°C° 0 mm 2 mps 658 mmHg 33%
    12:00 +8°C° 0 mm 2 mps 658 mmHg 31%
    13:00 +9°C° 0 mm 2 mps 657 mmHg 30%
    14:00 +8°C° 0 mm 2 mps 657 mmHg 33%
    15:00 +7°C° 0 mm 2 mps 657 mmHg 35%
    16:00 +6°C° 0 mm 2 mps 657 mmHg 38%
    17:00 +6°C° 0 mm 2 mps 657 mmHg 38%
    18:00 +5°C° 0 mm 2 mps 657 mmHg 38%
    19:00 +5°C° 0 mm 2 mps 657 mmHg 39%
    20:00 +4°C° 0 mm 2 mps 657 mmHg 38%
    21:00 +4°C° 0 mm 2 mps 657 mmHg 36%
    22:00 +3°C° 0 mm 3 mps 657 mmHg 35%
    23:00 +3°C° 0 mm 3 mps 657 mmHg 34%

    Day after tomorrow, 13 December, Thursday

    Time Temperature Precipitation Wind Pressure Humidity
    00:00 +3°C° 0 mm 3 mps 657 mmHg 33%
    01:00 +2°C° 0 mm 3 mps 657 mmHg 33%
    02:00 +2°C° 0 mm 3 mps 657 mmHg 32%
    03:00 +2°C° 0 mm 3 mps 657 mmHg 31%
    04:00 +2°C° 0 mm 3 mps 657 mmHg 30%
    05:00 +2°C° 0 mm 3 mps 657 mmHg 29%
    06:00 +2°C° 0 mm 3 mps 657 mmHg 28%
    07:00 +2°C° 0 mm 3 mps 658 mmHg 27%
    08:00 +4°C° 0 mm 3 mps 658 mmHg 25%
    09:00 +7°C° 0 mm 3 mps 658 mmHg 22%
    10:00 +9°C° 0 mm 3 mps 659 mmHg 19%
    11:00 +10°C° 0 mm 3 mps 658 mmHg 19%
    12:00 +10°C° 0 mm 3 mps 658 mmHg 18%
    13:00 +11°C° 0 mm 3 mps 658 mmHg 17%
    14:00 +10°C° 0 mm 3 mps 657 mmHg 19%
    15:00 +9°C° 0 mm 2 mps 657 mmHg 22%
    16:00 +7°C° 0 mm 2 mps 656 mmHg 24%
    17:00 +7°C° 0 mm 2 mps 657 mmHg 24%
    18:00 +7°C° 0 mm 3 mps 657 mmHg 24%
    19:00 +5°C° 0 mm 3 mps 657 mmHg 24%
    20:00 +5°C° 0 mm 3 mps 657 mmHg 24%
    21:00 +5°C° 0 mm 3 mps 657 mmHg 24%
    22:00 +5°C° 0 mm 3 mps 657 mmHg 24%
    23:00 +4°C° 0 mm 3 mps 657 mmHg 24%

    14 December, Friday

    Time Temperature Precipitation Wind Pressure Humidity
    00:00 +4°C° 0 mm 3 mps 657 mmHg 24%
    01:00 +4°C° 0 mm 3 mps 657 mmHg 24%
    02:00 +4°C° 0 mm 3 mps 657 mmHg 23%
    03:00 +3°C° 0 mm 3 mps 657 mmHg 23%
    04:00 +3°C° 0 mm 3 mps 657 mmHg 23%
    05:00 +3°C° 0 mm 3 mps 657 mmHg 22%
    06:00 +3°C° 0 mm 3 mps 657 mmHg 21%
    07:00 +3°C° 0 mm 3 mps 657 mmHg 20%
    08:00 +5°C° 0 mm 3 mps 658 mmHg 19%
    09:00 +8°C° 0 mm 2 mps 659 mmHg 18%
    10:00 +10°C° 0 mm 2 mps 659 mmHg 17%
    11:00 +12°C° 0 mm 2 mps 659 mmHg 16%
    12:00 +13°C° 0 mm 2 mps 659 mmHg 16%
    13:00 +13°C° 0 mm 2 mps 659 mmHg 15%
    14:00 +12°C° 0 mm 2 mps 659 mmHg 18%
    15:00 +10°C° 0 mm 1 mps 658 mmHg 20%
    16:00 +9°C° 0 mm 1 mps 658 mmHg 23%
    17:00 +8°C° 0 mm 1 mps 658 mmHg 23%
    18:00 +8°C° 0 mm 1 mps 659 mmHg 24%
    19:00 +7°C° 0 mm 1 mps 659 mmHg 24%
    20:00 +7°C° 0 mm 1 mps 659 mmHg 24%
    21:00 +6°C° 0 mm 1 mps 659 mmHg 24%
    22:00 +6°C° 0 mm 1 mps 659 mmHg 23%
    23:00 +6°C° 0 mm 1 mps 659 mmHg 24%

    15 December, Saturday

    Time Temperature Precipitation Wind Pressure Humidity
    00:00 +5°C° 0 mm 1 mps 659 mmHg 25%
    01:00 +5°C° 0 mm 1 mps 659 mmHg 26%
    02:00 +4°C° 0 mm 1 mps 658 mmHg 27%
    03:00 +4°C° 0 mm 1 mps 658 mmHg 28%
    04:00 +4°C° 0 mm 1 mps 658 mmHg 29%
    05:00 +4°C° 0 mm 1 mps 658 mmHg 29%
    06:00 +4°C° 0 mm 1 mps 658 mmHg 29%
    07:00 +3°C° 0 mm 1 mps 658 mmHg 29%
    08:00 +6°C° 0 mm 1 mps 659 mmHg 26%
    09:00 +8°C° 0 mm 1 mps 659 mmHg 23%
    10:00 +10°C° 0 mm 1 mps 660 mmHg 20%
    11:00 +10°C° 0 mm 1 mps 660 mmHg 19%
    12:00 +10°C° 0 mm 2 mps 659 mmHg 19%
    13:00 +12°C° 0 mm 2 mps 659 mmHg 18%
    14:00 +10°C° 0 mm 2 mps 659 mmHg 20%
    15:00 +9°C° 0 mm 1 mps 658 mmHg 23%
    16:00 +8°C° 0 mm 1 mps 658 mmHg 25%
    17:00 +8°C° 0 mm 1 mps 658 mmHg 25%
    18:00 +7°C° 0 mm 1 mps 659 mmHg 24%
    19:00 +6°C° 0 mm 2 mps 659 mmHg 23%
    20:00 +6°C° 0 mm 2 mps 659 mmHg 23%
    21:00 +6°C° 0 mm 2 mps 659 mmHg 22%
    22:00 +5°C° 0 mm 2 mps 659 mmHg 22%
    23:00 +5°C° 0 mm 2 mps 659 mmHg 22%

    16 December, Sunday

    Time Temperature Precipitation Wind Pressure Humidity
    00:00 +5°C° 0 mm 2 mps 659 mmHg 22%
    01:00 +5°C° 0 mm 2 mps 659 mmHg 22%
    02:00 +5°C° 0 mm 2 mps 659 mmHg 22%
    03:00 +4°C° 0 mm 2 mps 659 mmHg 22%
    04:00 +4°C° 0 mm 2 mps 659 mmHg 22%
    05:00 +4°C° 0 mm 2 mps 659 mmHg 22%
    06:00 +4°C° 0 mm 2 mps 659 mmHg 22%
    07:00 +4°C° 0 mm 2 mps 660 mmHg 23%
    08:00 +7°C° 0 mm 1 mps 660 mmHg 21%
    09:00 +9°C° 0 mm 1 mps 661 mmHg 19%
    10:00 +11°C° 0 mm 1 mps 662 mmHg 17%
    11:00 +12°C° 0 mm 1 mps 662 mmHg 17%
    12:00 +12°C° 0 mm 1 mps 662 mmHg 17%
    13:00 +12°C° 0 mm 2 mps 661 mmHg 18%
    14:00 +11°C° 0 mm 1 mps 661 mmHg 21%
    15:00 +10°C° 0 mm 1 mps 661 mmHg 24%
    16:00 +9°C° 0 mm 1 mps 660 mmHg 27%
    17:00 +8°C° 0 mm 1 mps 660 mmHg 28%
    18:00 +7°C° 0 mm 1 mps 660 mmHg 30%
    19:00 +5°C° 0 mm 0 mps 660 mmHg 31%
    20:00 +5°C° 0 mm 0 mps 660 mmHg 32%
    21:00 +4°C° 0 mm 0 mps 660 mmHg 33%
    22:00 +4°C° 0 mm 0 mps 660 mmHg 35%
    23:00 +3°C° 0 mm 0 mps 660 mmHg 36%
    Show more